Kosmos-2432

operational
NORAD ID: 32276 Int'l Des: 2007-052 Owner: KVR/IACG Country: RU Constellation: GLONASS
MEOCIRCULAR

Kosmos-2432について

説明を読み込み中...

リアルタイム位置

3D地球を読み込み中...

次回通過

高度履歴

Altitude vs Time

uPlot chart will show altitude changes over time

軌道要素

1 32276U 07052B 26062.91914729 -.00000053 00000-0 00000-0 0 9991
2 32276 65.6511 319.6039 0010630 330.1271 64.0556 2.13102981142846
Epoch: Mar 3, 2026 • Age: 29 hours

現在のステータス

高度 19147.3 km
速度 3.95 km/s
衛星直下点 -58.79°S, 46.3°W
打ち上げ日 Oct 26, 2007
運用期間 18.3 years
タイプ other

技術仕様

分類 Payload
質量 1450.00 kg
乾燥質量 1200.00 kg
総質量 1450.00 kg
長さ 4.00 m
直径 1.50 m
スパン 7.80 m
形状 Cyl + Ant + 2 Pan
製造者 RESH
バスタイプ Uragan
フェーズステータス In Orbit
所有者/国 KVR/IACG/RU

大規模コンステレーション

Loading constellations...